[[{"header":{"parameterUnit":"m.s-1","parameterCategory":2,"la1":30.2991,"la2":30.254,"lo1":-89.0895,"lo2":-89.0444,"dy":0.0017,"dx":0.0017,"nx":28,"ny":28,"refTime":"2023-10-06T21:00:00:Z","depth":"0","parameterNumber":2,"parameterNumberName":"U-component_of_CURRENTS"},"data":[0,0,0,0,0,0,0,0,0,0,0,0,0,0,0,0,0,0,0,0,0,0,0,0,0,0,0,0,0,0,0,0,0,0,0,0,0,0,0,0,0,0,0,0,0,0,0,0,0,0,0,0,0,0,0,0,0,0,0.2122,0.2122,0,0.2128,0.2128,0.2128,0.2118,0.2118,0.2118,0.2118,0.2112,0.2112,0.2112,0,0,0,0,0,0,0,0,0,0,0,0,0,0.2105,0.2105,0.2122,0.2122,0.2122,0.2128,0.2128,0.2128,0.2118,0.2118,0.2118,0.2118,0.2112,0.2112,0.2112,0,0,0,0,0,0,0,0,0,0,0,0,0,0.2109,0.2105,0.2122,0.212,0.212,0.2128,0.2128,0.2128,0.2118,0.2118,0.2118,0.2118,0.2112,0.2112,0.2112,0.2116,0,0,0.2112,0.2112,0,0,0,0,0,0,0,0,0.2109,0.211,0.212,0.212,0.212,0.2124,0.212,0.2124,0.2118,0.2116,0.2118,0.2117,0.2116,0.2116,0.2115,0.2115,0.2115,0.2112,0.2112,0.2112,0.2112,0,0,0,0,0,0,0,0.2109,0.211,0.2122,0.212,0.212,0.212,0.212,0.2121,0.2115,0.2116,0.2116,0.2121,0.2116,0.2115,0.2114,0.2115,0.2112,0.2112,0.2111,0.2111,0.2135,0.2136,0,0,0,0,0,0,0.2113,0.2109,0.2122,0.2122,0.2117,0.2121,0.2121,0.2121,0.2116,0.2115,0.2121,0.212,0.2115,0.2114,0.2114,0.2136,0.2112,0.2111,0.2111,0.2135,0.2135,0.2136,0,0,0,0,0,0,0.2112,0.2114,0.2122,0.2118,0.2119,0.2122,0.2122,0.2121,0.2124,0.212,0.2119,0.2125,0.2115,0.2114,0.212,0.2135,0.2111,0.2111,0.2134,0.2135,0.2136,0.2168,0,0,0,0,0,0,0.2112,0.2113,0.2116,0.2118,0.212,0.2138,0.2122,0.2122,0.2128,0.2127,0.2123,0.2121,0.2114,0.212,0.212,0.2134,0.2111,0.2133,0.2134,0.2135,0.2166,0.217,0.2174,0,0,0,0,0,0.2111,0.2118,0.2115,0.2117,0.2122,0.2139,0.214,0.2139,0.2128,0.2138,0.213,0.2122,0.2128,0.2121,0.212,0.2135,0.2132,0.2134,0.2135,0.2165,0.217,0.2174,0,0,0,0,0,0,0.2112,0.2118,0.2115,0.2123,0.2136,0.2139,0.2148,0.2143,0.2144,0.214,0.2128,0.2128,0.2143,0.2133,0.2125,0.2146,0.213,0.2131,0.2152,0.2157,0.216,0.219,0.2111,0,0,0,0,0,0.2114,0.212,0.2129,0.2136,0.2144,0.2145,0.2151,0.2151,0.2152,0.2152,0.2147,0.2142,0.2149,0.2147,0.2152,0.2158,0.2175,0.2168,0.2172,0.2175,0.2199,0.2231,0.224,0.2141,0.2141,0.2141,0,0,0.2114,0.2121,0.2123,0.2137,0.2144,0.2157,0.2148,0.2163,0.2173,0.2152,0.2161,0.216,0.2155,0.2168,0.2173,0.2159,0.2211,0.2177,0.2179,0.2202,0.2233,0.2243,0.2252,0.2142,0.2142,0.2142,0,0,0.2123,0.2128,0.2137,0.215,0.2167,0.2171,0.2178,0.2185,0.2191,0.2195,0.2191,0.2202,0.2191,0.2204,0.2205,0.2232,0.2236,0.2226,0.2261,0.2291,0.23,0.2308,0.2341,0.2352,0.2219,0.222,0.222,0,0.2124,0.2135,0.2144,0.2159,0.2173,0.2178,0.2195,0.2204,0.221,0.2222,0.2201,0.2219,0.2213,0.2246,0.2256,0.2243,0.2261,0.2242,0.2297,0.2305,0.2313,0.2346,0.2357,0.2221,0.2221,0.2221,0.2221,0,0.2138,0.215,0.2162,0.2179,0.2196,0.2215,0.2232,0.2248,0.2244,0.2249,0.2279,0.2275,0.2289,0.2284,0.2276,0.2331,0.2328,0.2304,0.2288,0.2325,0.2357,0.2368,0.2224,0.2223,0.2223,0.2222,0,0,0.2129,0.2162,0.2166,0.218,0.221,0.2225,0.2255,0.2286,0.2313,0.231,0.2346,0.2354,0.236,0.2365,0.2363,0.2386,0.2449,0.2371,0.2372,0.241,0.2527,0.2523,0.2535,0.2433,0.2435,0.2437,0.2527,0,0.2137,0.2165,0.2183,0.2213,0.223,0.2257,0.2286,0.2315,0.2337,0.2374,0.2383,0.2413,0.2388,0.2403,0.2425,0.2453,0.2482,0.2428,0.2482,0.2484,0.2481,0.2549,0.2494,0.257,0.2538,0.254,0.2541,0,0.2141,0.2162,0.219,0.2235,0.2246,0.2265,0.2325,0.2356,0.2413,0.2433,0.2469,0.2482,0.2535,0.2497,0.2567,0.2534,0.2545,0.2552,0.2555,0.2555,0.2503,0.2527,0.2592,0.258,0.2559,0.2557,0.2556,0,0.2125,0.2168,0.219,0.2204,0.2253,0.2277,0.2308,0.2369,0.2408,0.2485,0.2518,0.2571,0.2606,0.2631,0.2649,0.2617,0.2721,0.267,0.2678,0.2677,0.2646,0.2639,0.2712,0.2726,0.2726,0.2726,0.2725,0,0.2124,0.2143,0.2183,0.2194,0.223,0.2272,0.2322,0.2371,0.2446,0.2503,0.2551,0.2613,0.2643,0.2695,0.2695,0.2739,0.2758,0.272,0.2713,0.2654,0.2647,0.2646,0.2627,0.2729,0.2728,0.2728,0.2727,0,0.21,0.2126,0.2153,0.2203,0.2221,0.2247,0.2318,0.2361,0.2441,0.2525,0.2554,0.2661,0.2746,0.2771,0.283,0.2805,0.278,0.2839,0.2775,0.2759,0.274,0.2724,0.2653,0.2563,0.2873,0.2873,0.2874,0,0.2088,0.2099,0.2147,0.2164,0.2185,0.2229,0.2263,0.2345,0.24,0.2554,0.2596,0.2717,0.2797,0.2893,0.2893,0.2917,0.2817,0.2861,0.2788,0.277,0.2747,0.2594,0.251,0.2757,0.2756,0.2756,0.2756,0,0.2067,0.2083,0.2105,0.2136,0.2167,0.2202,0.2262,0.2301,0.2414,0.2498,0.2627,0.2712,0.284,0.2867,0.2912,0.2907,0.2756,0.2854,0.2852,0.2697,0.2519,0.2417,0.267,0.2752,0.2753,0.2753,0.2753,0.2753,0.2049,0.2054,0.2079,0.2106,0.2136,0.2164,0.2175,0.2255,0.2333,0.2451,0.2583,0.2699,0.2817,0.289,0.2858,0.283,0.2748,0.2772,0.2766,0.2622,0.2497,0.2755,0.2812,0.2813,0.2813,0.2814,0.2814,0,0.2015,0.2025,0.2049,0.2064,0.2068,0.2106,0.2162,0.2169,0.223,0.2388,0.2489,0.2672,0.274,0.2803,0.2853,0.2776,0.2579,0.2714,0.2504,0.2432,0.2705,0.2667,0.2675,0.2675,0.2675,0.2675,0.2675,0.2675,0.1997,0.1993,0.2001,0.1985,0.1998,0.198,0.1995,0.2033,0.2123,0.2247,0.2375,0.2518,0.2759,0.2917,0.2898,0.2805,0.2563,0.2455,0.2405,0.2658,0.2662,0.2666,0.2627,0.2627,0.2627,0.2018,0.2014,0.2011]},{"header":{"parameterUnit":"m.s-1","parameterCategory":2,"la1":30.2991,"la2":30.254,"lo1":-89.0895,"lo2":-89.0444,"dy":0.0017,"dx":0.0017,"nx":28,"ny":28,"refTime":"2023-10-06T21:00:00:Z","depth":"0","parameterNumber":3,"parameterNumberName":"V-component_of_CURRENTS"},"data":[0,0,0,0,0,0,0,0,0,0,0,0,0,0,0,0,0,0,0,0,0,0,0,0,0,0,0,0,0,0,0,0,0,0,0,0,0,0,0,0,0,0,0,0,0,0,0,0,0,0,0,0,0,0,0,0,0,0,-0.0096,-0.0097,0,-0.0132,-0.0133,-0.0133,-0.0161,-0.0161,-0.0161,-0.0161,-0.0205,-0.0206,-0.0207,0,0,0,0,0,0,0,0,0,0,0,0,0,-0.0083,-0.0083,-0.0096,-0.0097,-0.0097,-0.0132,-0.0133,-0.0133,-0.0161,-0.0161,-0.0161,-0.0161,-0.0204,-0.0205,-0.0207,0,0,0,0,0,0,0,0,0,0,0,0,0,-0.0101,-0.0083,-0.0096,-0.0115,-0.0117,-0.0132,-0.0133,-0.0133,-0.0161,-0.0161,-0.0161,-0.0161,-0.0204,-0.0205,-0.0207,-0.021,0,0,-0.0211,-0.0212,0,0,0,0,0,0,0,0,-0.01,-0.0102,-0.0112,-0.0113,-0.0116,-0.0142,-0.0144,-0.0159,-0.0161,-0.0145,-0.0161,-0.0162,-0.0184,-0.0187,-0.0194,-0.0212,-0.0214,-0.0211,-0.0212,-0.0213,-0.0213,0,0,0,0,0,0,0,-0.0099,-0.01,-0.0111,-0.0112,-0.0114,-0.0131,-0.0134,-0.0147,-0.0163,-0.0146,-0.0148,-0.0151,-0.0185,-0.0192,-0.0195,-0.0214,-0.0211,-0.0213,-0.0214,-0.0214,-0.0237,-0.0237,0,0,0,0,0,0,-0.0091,-0.0099,-0.011,-0.0112,-0.0108,-0.0131,-0.0134,-0.0134,-0.0162,-0.0167,-0.015,-0.0152,-0.019,-0.0193,-0.0197,-0.0194,-0.0213,-0.0214,-0.0215,-0.0237,-0.0237,-0.0237,0,0,0,0,0,0,-0.009,-0.0091,-0.0109,-0.0106,-0.011,-0.0131,-0.013,-0.0134,-0.0139,-0.0166,-0.017,-0.0151,-0.019,-0.0195,-0.0203,-0.0196,-0.0215,-0.0216,-0.0238,-0.0237,-0.0237,-0.0194,0,0,0,0,0,0,-0.009,-0.0091,-0.0087,-0.0105,-0.0109,-0.0111,-0.013,-0.0135,-0.014,-0.0143,-0.0168,-0.0172,-0.0191,-0.02,-0.0204,-0.0198,-0.0217,-0.0238,-0.0237,-0.0237,-0.0195,-0.0192,-0.0189,0,0,0,0,0,-0.0089,-0.0079,-0.0086,-0.0088,-0.0103,-0.011,-0.0113,-0.0131,-0.014,-0.0137,-0.0155,-0.0171,-0.02,-0.0201,-0.0206,-0.02,-0.0238,-0.0238,-0.0237,-0.0197,-0.0192,-0.0189,0,0,0,0,0,0,-0.007,-0.0081,-0.009,-0.0083,-0.0094,-0.0114,-0.0112,-0.0126,-0.0138,-0.0139,-0.0166,-0.0172,-0.0178,-0.0194,-0.0194,-0.0206,-0.0223,-0.0223,-0.019,-0.0186,-0.0183,-0.0171,-0.0219,0,0,0,0,0,-0.0064,-0.0059,-0.0075,-0.0069,-0.0072,-0.0092,-0.0097,-0.0107,-0.0121,-0.0127,-0.0147,-0.0165,-0.0179,-0.0186,-0.0202,-0.0205,-0.0228,-0.0206,-0.0202,-0.0199,-0.0193,-0.0223,-0.0222,-0.0235,-0.0235,-0.0235,0,0,-0.0055,-0.006,-0.0058,-0.0064,-0.0074,-0.0071,-0.0095,-0.0096,-0.0093,-0.013,-0.0131,-0.0154,-0.0178,-0.0183,-0.0188,-0.0195,-0.0208,-0.0198,-0.0196,-0.0191,-0.0223,-0.0221,-0.022,-0.0234,-0.0234,-0.0235,0,0,-0.0033,-0.0039,-0.0027,-0.0032,-0.004,-0.0051,-0.0049,-0.0067,-0.0074,-0.008,-0.0105,-0.0122,-0.0144,-0.016,-0.017,-0.0157,-0.019,-0.0164,-0.0136,-0.0166,-0.0165,-0.0164,-0.0193,-0.0196,-0.0161,-0.0161,-0.0161,0,-0.0023,-0.0009,-0.0025,-0.0016,-0.0013,-0.0039,-0.0025,-0.0035,-0.0054,-0.0056,-0.0074,-0.011,-0.0132,-0.0138,-0.0136,-0.0149,-0.0172,-0.0148,-0.0161,-0.0161,-0.0161,-0.0191,-0.0194,-0.0159,-0.0159,-0.016,-0.016,0,0.0007,0.0017,0.0025,0.0029,0.0029,0.0038,0.0023,0.0022,0.0007,-0.001,-0.0022,-0.0059,-0.0079,-0.0093,-0.0111,-0.012,-0.0138,-0.0154,-0.017,-0.0157,-0.019,-0.0194,-0.0156,-0.0157,-0.0157,-0.0158,0,0,0.0035,0.0044,0.0049,0.0062,0.0056,0.0063,0.007,0.007,0.0081,0.0045,0.005,0.0012,-0.0015,-0.0029,-0.0059,-0.0088,-0.0114,-0.0118,-0.012,-0.0143,-0.018,-0.0183,-0.0189,-0.0134,-0.0134,-0.0135,-0.0202,0,0.0066,0.0098,0.0092,0.0124,0.0141,0.0126,0.0138,0.0132,0.0118,0.0114,0.0068,0.0056,0.0012,0.0003,-0.0033,-0.0088,-0.0123,-0.0094,-0.0191,-0.0194,-0.0196,-0.0193,-0.0181,-0.024,-0.0207,-0.0207,-0.0208,0,0.0101,0.012,0.0159,0.0182,0.0189,0.0203,0.0223,0.023,0.0212,0.02,0.017,0.013,0.0089,0.0045,-0.005,-0.0029,-0.0099,-0.0152,-0.0156,-0.0176,-0.0205,-0.0247,-0.0249,-0.0394,-0.0215,-0.0214,-0.0214,0,0.0143,0.017,0.0207,0.0215,0.0232,0.0252,0.0262,0.0259,0.0278,0.0255,0.0258,0.0193,0.0171,0.0073,-0.0033,-0.0044,-0.0141,-0.0173,-0.0245,-0.0247,-0.0264,-0.0265,-0.0413,-0.0247,-0.0247,-0.0247,-0.0247,0,0.0184,0.0213,0.0233,0.0256,0.0306,0.0299,0.0349,0.0346,0.0353,0.0389,0.0308,0.0318,0.0177,0.0105,-0.001,-0.013,-0.0126,-0.0238,-0.0263,-0.0248,-0.0248,-0.0396,-0.0485,-0.025,-0.0249,-0.0249,-0.0248,0,0.0224,0.0235,0.0282,0.0313,0.033,0.0367,0.0414,0.0448,0.0441,0.0485,0.0482,0.0414,0.0323,0.0176,0.0026,-0.0085,-0.0301,-0.0257,-0.0228,-0.0248,-0.0454,-0.054,-0.0712,-0.0806,-0.0355,-0.0356,-0.0356,0,0.0248,0.0278,0.0331,0.0368,0.0388,0.0441,0.0484,0.0497,0.0541,0.0557,0.0588,0.0508,0.0479,0.0248,0.0038,-0.0166,-0.0319,-0.0301,-0.0325,-0.0462,-0.0578,-0.0638,-0.0709,-0.0337,-0.0337,-0.0337,-0.0337,0,0.0297,0.0317,0.0357,0.0432,0.0487,0.055,0.0615,0.0665,0.0695,0.0734,0.0778,0.0753,0.0535,0.034,0.005,-0.0104,-0.0417,-0.0311,-0.0466,-0.0585,-0.0648,-0.0749,-0.0299,-0.0339,-0.0339,-0.0339,-0.0338,-0.0338,0.0337,0.0374,0.0432,0.0504,0.0571,0.0659,0.0723,0.08,0.0889,0.097,0.0935,0.0937,0.0625,0.0234,0.0001,-0.042,-0.0443,-0.0547,-0.0644,-0.0692,-0.0778,-0.0326,-0.0383,-0.0383,-0.0383,-0.0383,-0.0383,0,0.0385,0.0428,0.0499,0.0588,0.067,0.0695,0.0812,0.0883,0.1007,0.1092,0.1136,0.0984,0.0604,0.0197,-0.036,-0.0676,-0.0815,-0.0867,-0.0963,-0.1025,-0.0629,-0.0622,-0.0717,-0.0717,-0.0717,-0.0717,-0.0717,-0.0717,0.0413,0.0487,0.0521,0.0661,0.0726,0.0841,0.0913,0.1021,0.1109,0.1219,0.1232,0.1189,0.0856,-0.0107,-0.0837,-0.1024,-0.1268,-0.1309,-0.1457,-0.1193,-0.1171,-0.1149,-0.1164,-0.1371,-0.1372,-0.1805,-0.1809,-0.1813]}],[{"header":{"parameterUnit":"m.s-1","parameterCategory":2,"la1":30.2991,"la2":30.254,"lo1":-89.0895,"lo2":-89.0444,"dy":0.0017,"dx":0.0017,"nx":28,"ny":28,"refTime":"2023-10-06T21:00:00:Z","depth":"2","parameterNumber":2,"parameterNumberName":"U-component_of_CURRENTS"},"data":[0,0,0,0,0,0,0,0,0,0,0,0,0,0,0,0,0,0,0,0,0,0,0,0,0,0,0,0,0,0,0,0,0,0,0,0,0,0,0,0,0,0,0,0,0,0,0,0,0,0,0,0,0,0,0,0,0,0,0.2076,0.2076,0,0.2082,0.2082,0.2082,0.2074,0.2074,0.2074,0.2074,0.207,0.207,0.207,0,0,0,0,0,0,0,0,0,0,0,0,0,0.2059,0.2059,0.2076,0.2076,0.2077,0.2082,0.2082,0.2082,0.2074,0.2074,0.2074,0.2074,0.207,0.207,0.207,0,0,0,0,0,0,0,0,0,0,0,0,0,0.2064,0.2059,0.2076,0.2075,0.2075,0.2082,0.2082,0.2082,0.2074,0.2074,0.2074,0.2074,0.207,0.207,0.207,0.2072,0,0,0.207,0.207,0,0,0,0,0,0,0,0,0.2064,0.2064,0.2075,0.2075,0.2075,0.2079,0.2075,0.2079,0.2074,0.2072,0.2074,0.2074,0.2074,0.2074,0.2072,0.2072,0.2072,0.207,0.207,0.207,0.207,0,0,0,0,0,0,0,0.2063,0.2064,0.2076,0.2075,0.2076,0.2075,0.2075,0.2076,0.2072,0.2073,0.2073,0.2077,0.2074,0.2072,0.2072,0.2072,0.207,0.207,0.207,0.207,0.2094,0.2094,0,0,0,0,0,0,0.2067,0.2064,0.2076,0.2077,0.2072,0.2076,0.2076,0.2076,0.2072,0.2072,0.2077,0.2077,0.2072,0.2072,0.2072,0.2095,0.207,0.207,0.207,0.2093,0.2094,0.2095,0,0,0,0,0,0,0.2067,0.2068,0.2076,0.2072,0.2074,0.2076,0.2077,0.2077,0.2081,0.2076,0.2075,0.2082,0.2072,0.2072,0.2078,0.2094,0.207,0.207,0.2092,0.2093,0.2094,0.2128,0,0,0,0,0,0,0.2066,0.2068,0.2071,0.2072,0.2074,0.2092,0.2077,0.2077,0.2084,0.2084,0.208,0.2079,0.2072,0.2078,0.2078,0.2093,0.207,0.2092,0.2093,0.2094,0.2126,0.213,0.2133,0,0,0,0,0,0.2065,0.2073,0.207,0.2072,0.2077,0.2093,0.2094,0.2094,0.2085,0.2095,0.2087,0.2079,0.2086,0.2079,0.2079,0.2094,0.2091,0.2093,0.2094,0.2124,0.2129,0.2133,0,0,0,0,0,0,0.2067,0.2073,0.207,0.2079,0.2091,0.2093,0.2103,0.2099,0.21,0.2098,0.2086,0.2085,0.2102,0.2091,0.2083,0.2105,0.2088,0.209,0.2111,0.2116,0.2119,0.2148,0.207,0,0,0,0,0,0.2069,0.2076,0.2084,0.2092,0.2099,0.21,0.2106,0.2107,0.2109,0.2109,0.2104,0.2101,0.2107,0.2105,0.2111,0.2117,0.2133,0.2127,0.2131,0.2134,0.2157,0.2188,0.2197,0.21,0.21,0.21,0,0,0.207,0.2077,0.2079,0.2093,0.21,0.2112,0.2103,0.2119,0.2129,0.2109,0.2119,0.2118,0.2114,0.2126,0.2132,0.2118,0.217,0.2136,0.2138,0.2161,0.2191,0.22,0.2209,0.2101,0.21,0.21,0,0,0.2079,0.2085,0.2093,0.2106,0.2124,0.2127,0.2134,0.2142,0.2148,0.2153,0.2149,0.216,0.2151,0.2163,0.2163,0.219,0.2194,0.2185,0.222,0.2249,0.2258,0.2266,0.2298,0.2309,0.2179,0.2179,0.2179,0,0.2081,0.2092,0.21,0.2116,0.2129,0.2135,0.2151,0.216,0.2167,0.2179,0.216,0.2178,0.2172,0.2204,0.2215,0.2201,0.2219,0.2201,0.2255,0.2263,0.2271,0.2302,0.2313,0.2181,0.2181,0.2181,0.2181,0,0.2094,0.2107,0.2118,0.2135,0.2152,0.2171,0.2187,0.2204,0.2201,0.2206,0.2236,0.2233,0.2247,0.2243,0.2235,0.2289,0.2286,0.2262,0.2246,0.2283,0.2313,0.2324,0.2184,0.2183,0.2182,0.2182,0,0,0.2086,0.2119,0.2123,0.2136,0.2166,0.218,0.2211,0.224,0.2267,0.2266,0.2301,0.231,0.2317,0.2321,0.232,0.2342,0.2405,0.2328,0.2329,0.2366,0.248,0.2471,0.2482,0.2389,0.2391,0.2393,0.248,0,0.2095,0.2122,0.2139,0.2169,0.2185,0.2212,0.224,0.2269,0.2292,0.2327,0.2337,0.2367,0.2344,0.236,0.2382,0.2408,0.2437,0.2385,0.2436,0.2438,0.2429,0.2496,0.2261,0.2319,0.2491,0.2492,0.2494,0,0.2099,0.2119,0.2146,0.219,0.2201,0.222,0.2278,0.2308,0.2365,0.2385,0.2421,0.2434,0.2487,0.245,0.2519,0.2488,0.2498,0.2505,0.2508,0.2502,0.2451,0.2309,0.2332,0.2512,0.2511,0.2509,0.2508,0,0.2084,0.2125,0.2146,0.216,0.2208,0.2231,0.2262,0.2322,0.236,0.2436,0.2469,0.2521,0.2556,0.2581,0.2599,0.2568,0.2669,0.2619,0.2622,0.2621,0.2436,0.2415,0.2674,0.2674,0.2674,0.2674,0.2673,0,0.2082,0.2101,0.214,0.2151,0.2187,0.2227,0.2277,0.2325,0.2399,0.2454,0.2502,0.2561,0.2592,0.2643,0.2643,0.2684,0.2705,0.2663,0.2655,0.244,0.2421,0.2593,0.2583,0.2677,0.2676,0.2675,0.2675,0,0.2059,0.2084,0.2111,0.216,0.2177,0.2203,0.2274,0.2315,0.2395,0.2476,0.2505,0.2608,0.269,0.2714,0.2772,0.2746,0.2775,0.2776,0.2533,0.2496,0.2696,0.2686,0.2801,0.2802,0.2802,0.2803,0.2803,0,0.2047,0.2058,0.2105,0.2122,0.2144,0.2187,0.222,0.2301,0.2354,0.2503,0.2542,0.2659,0.2729,0.2821,0.279,0.2804,0.2827,0.2601,0.2505,0.2735,0.2715,0.2704,0.2694,0.2263,0.2259,0.2255,0.2253,0,0.2026,0.2043,0.2065,0.2095,0.2126,0.2159,0.2218,0.2255,0.2365,0.2442,0.2562,0.2637,0.2732,0.2652,0.2681,0.2652,0.2581,0.2539,0.2839,0.2281,0.2238,0.2216,0.2221,0.2223,0.2226,0.2228,0.223,0.2231,0.2009,0.2014,0.2039,0.2065,0.2095,0.212,0.213,0.2191,0.2259,0.2329,0.2475,0.2488,0.2512,0.2445,0.238,0.2315,0.2496,0.2357,0.2361,0.2371,0.2307,0.227,0.2248,0.2251,0.2254,0.2256,0.2258,0,0.1969,0.1985,0.2009,0.2023,0.2017,0.2064,0.2115,0.2084,0.2114,0.2186,0.2246,0.208,0.2048,0.2063,0.1922,0.1947,0.187,0.1865,0.172,0.1754,0.1783,0.1682,0.1461,0.1458,0.1456,0.1453,0,0,0.195,0.1942,0.195,0.1927,0.1945,0.1906,0.1918,0.1885,0.189,0.1845,0.1817,0.1942,0.2015,0.1697,0.1673,0.1538,0.1626,0.1481,0.2126,0.199,0.2015,0.2084,0.1972,0,0,0,0,0]},{"header":{"parameterUnit":"m.s-1","parameterCategory":2,"la1":30.2991,"la2":30.254,"lo1":-89.0895,"lo2":-89.0444,"dy":0.0017,"dx":0.0017,"nx":28,"ny":28,"refTime":"2023-10-06T21:00:00:Z","depth":"2","parameterNumber":3,"parameterNumberName":"V-component_of_CURRENTS"},"data":[0,0,0,0,0,0,0,0,0,0,0,0,0,0,0,0,0,0,0,0,0,0,0,0,0,0,0,0,0,0,0,0,0,0,0,0,0,0,0,0,0,0,0,0,0,0,0,0,0,0,0,0,0,0,0,0,0,0,-0.0007,-0.0007,0,-0.0041,-0.0042,-0.0042,-0.007,-0.0071,-0.0071,-0.0071,-0.0114,-0.0115,-0.0116,0,0,0,0,0,0,0,0,0,0,0,0,0,0.0005,0.0006,-0.0007,-0.0007,-0.0008,-0.0041,-0.0042,-0.0042,-0.007,-0.0071,-0.0071,-0.0071,-0.0114,-0.0115,-0.0116,0,0,0,0,0,0,0,0,0,0,0,0,0,-0.0012,0.0006,-0.0007,-0.0025,-0.0027,-0.0041,-0.0042,-0.0042,-0.007,-0.0071,-0.0071,-0.0071,-0.0114,-0.0115,-0.0117,-0.0118,0,0,-0.0121,-0.0121,0,0,0,0,0,0,0,0,-0.0011,-0.0012,-0.0022,-0.0024,-0.0026,-0.0051,-0.0053,-0.0068,-0.007,-0.0055,-0.0071,-0.0071,-0.0094,-0.0097,-0.0103,-0.012,-0.0122,-0.0121,-0.0122,-0.0122,-0.0123,0,0,0,0,0,0,0,-0.001,-0.0011,-0.0021,-0.0023,-0.0025,-0.0042,-0.0044,-0.0056,-0.0072,-0.0056,-0.0058,-0.0061,-0.0095,-0.0102,-0.0104,-0.0122,-0.0121,-0.0122,-0.0123,-0.0123,-0.0146,-0.0145,0,0,0,0,0,0,-0.0002,-0.001,-0.002,-0.0022,-0.0019,-0.0041,-0.0045,-0.0043,-0.0072,-0.0076,-0.006,-0.0062,-0.0099,-0.0103,-0.0106,-0.0104,-0.0122,-0.0124,-0.0124,-0.0146,-0.0145,-0.0145,0,0,0,0,0,0,-0.0002,-0.0003,-0.0019,-0.0017,-0.002,-0.0041,-0.004,-0.0044,-0.005,-0.0075,-0.008,-0.0062,-0.0099,-0.0104,-0.0112,-0.0106,-0.0124,-0.0125,-0.0146,-0.0146,-0.0145,-0.0103,0,0,0,0,0,0,-0.0001,-0.0002,0.0001,-0.0016,-0.002,-0.002,-0.004,-0.0044,-0.0051,-0.0053,-0.0078,-0.0083,-0.01,-0.011,-0.0114,-0.0108,-0.0127,-0.0146,-0.0146,-0.0145,-0.0105,-0.0101,-0.0098,0,0,0,0,0,-0.0001,0.001,0.0002,0.0001,-0.0014,-0.002,-0.0023,-0.004,-0.0051,-0.0048,-0.0066,-0.0082,-0.011,-0.0111,-0.0115,-0.011,-0.0147,-0.0146,-0.0146,-0.0106,-0.0102,-0.0098,0,0,0,0,0,0,0.0017,0.0007,-0.0002,0.0005,-0.0005,-0.0024,-0.0023,-0.0036,-0.0049,-0.0051,-0.0077,-0.0082,-0.0089,-0.0104,-0.0104,-0.0115,-0.0132,-0.0132,-0.01,-0.0096,-0.0093,-0.0081,-0.0128,0,0,0,0,0,0.0023,0.0028,0.0013,0.0019,0.0016,-0.0003,-0.0008,-0.0019,-0.0033,-0.0039,-0.0058,-0.0077,-0.009,-0.0096,-0.0111,-0.0114,-0.0136,-0.0115,-0.0112,-0.0109,-0.0102,-0.0131,-0.013,-0.0143,-0.0143,-0.0143,0,0,0.0031,0.0027,0.0029,0.0023,0.0014,0.0017,-0.0007,-0.0009,-0.0006,-0.0041,-0.0043,-0.0066,-0.0088,-0.0093,-0.0098,-0.0105,-0.0117,-0.0108,-0.0105,-0.01,-0.013,-0.0129,-0.0128,-0.0143,-0.0143,-0.0143,0,0,0.0053,0.0047,0.0058,0.0054,0.0045,0.0035,0.0037,0.0019,0.0013,0.0006,-0.0018,-0.0035,-0.0056,-0.007,-0.008,-0.0068,-0.01,-0.0075,-0.0047,-0.0075,-0.0074,-0.0074,-0.0102,-0.0104,-0.0072,-0.0072,-0.0072,0,0.0062,0.0075,0.006,0.007,0.0073,0.0047,0.0061,0.0051,0.0032,0.0031,0.0012,-0.0022,-0.0044,-0.0048,-0.0047,-0.006,-0.0082,-0.0059,-0.0071,-0.007,-0.0071,-0.01,-0.0103,-0.007,-0.007,-0.007,-0.0071,0,0.0091,0.0101,0.0109,0.0114,0.0113,0.0122,0.0109,0.0107,0.0091,0.0076,0.0064,0.0028,0.0009,-0.0005,-0.0022,-0.003,-0.0048,-0.0064,-0.0079,-0.0067,-0.0098,-0.0102,-0.0067,-0.0068,-0.0068,-0.0069,0,0,0.0117,0.0128,0.0132,0.0146,0.014,0.0147,0.0155,0.0156,0.0167,0.0132,0.0137,0.01,0.0072,0.006,0.003,0.0003,-0.0023,-0.0027,-0.003,-0.0052,-0.0087,-0.0093,-0.0099,-0.0042,-0.0042,-0.0043,-0.0109,0,0.0147,0.018,0.0174,0.0207,0.0225,0.021,0.0223,0.0218,0.0204,0.0201,0.0156,0.0145,0.01,0.0091,0.0056,0.0002,-0.0031,-0.0003,-0.0098,-0.0101,-0.0105,-0.0103,-0.0062,-0.0117,-0.0113,-0.0114,-0.0114,0,0.0181,0.02,0.024,0.0265,0.0272,0.0286,0.0308,0.0315,0.03,0.0287,0.0258,0.0218,0.0179,0.0135,0.0042,0.0061,-0.0008,-0.0059,-0.0063,-0.0085,-0.0114,-0.0129,-0.0124,-0.0122,-0.0121,-0.012,-0.012,0,0.0221,0.0249,0.0287,0.0295,0.0314,0.0334,0.0345,0.0343,0.0364,0.0342,0.0344,0.0281,0.026,0.0164,0.0058,0.0047,-0.0047,-0.0078,-0.0152,-0.0153,-0.0144,-0.0144,-0.015,-0.015,-0.0149,-0.0149,-0.0149,0,0.0261,0.0291,0.0311,0.0334,0.0386,0.038,0.043,0.0429,0.0437,0.0474,0.0393,0.0404,0.0266,0.0195,0.0081,-0.0038,-0.0032,-0.0145,-0.0169,-0.0129,-0.0126,-0.015,-0.0149,-0.0152,-0.0151,-0.0151,-0.015,0,0.0299,0.0311,0.0358,0.0391,0.0408,0.0445,0.0494,0.0528,0.0522,0.0567,0.0563,0.0498,0.0406,0.0262,0.0115,0.0006,-0.0117,-0.0164,-0.0107,-0.0123,-0.0216,-0.0212,-0.0262,-0.0263,-0.0263,-0.0264,-0.0264,0,0.0322,0.0352,0.0406,0.0443,0.0463,0.0517,0.056,0.0575,0.0621,0.0636,0.0668,0.0587,0.0558,0.033,0.0129,-0.0071,-0.0111,-0.0181,-0.02,-0.0208,-0.0227,-0.0222,-0.0217,-0.0176,-0.0176,-0.0175,-0.0175,0,0.037,0.0389,0.043,0.0505,0.0561,0.0625,0.069,0.074,0.0772,0.081,0.0851,0.0825,0.0615,0.0429,0.0144,0.0008,-0.0148,-0.0183,-0.0202,-0.015,-0.0131,-0.0148,-0.0146,-0.0173,-0.0173,-0.0173,-0.0173,-0.0174,0.0409,0.0445,0.0504,0.0575,0.0643,0.0732,0.0796,0.0875,0.0963,0.1035,0.1,0.0967,0.0738,0.0389,0.0145,-0.0123,-0.0121,-0.022,-0.0219,-0.0219,-0.0193,-0.0176,-0.0222,-0.0222,-0.0223,-0.0223,-0.0223,0,0.0459,0.0498,0.0569,0.0659,0.0744,0.0766,0.0884,0.0964,0.1086,0.1132,0.1168,0.0969,0.0737,0.0455,0.0074,-0.0156,-0.0172,-0.024,-0.0205,-0.0205,-0.0206,-0.0178,-0.0204,-0.0205,-0.0206,-0.0206,0,0,0.0488,0.0562,0.0597,0.0737,0.0798,0.0925,0.0998,0.112,0.1187,0.1252,0.1226,0.1161,0.0819,0.0547,0.0238,0.0012,-0.0048,-0.0033,-0.002,0.0059,0.0061,-0.0162,-0.0115,0,0,0,0,0]}],[{"header":{"parameterUnit":"m.s-1","parameterCategory":2,"la1":30.2991,"la2":30.254,"lo1":-89.0895,"lo2":-89.0444,"dy":0.0017,"dx":0.0017,"nx":28,"ny":28,"refTime":"2023-10-06T21:00:00:Z","depth":"4","parameterNumber":2,"parameterNumberName":"U-component_of_CURRENTS"},"data":[0,0,0,0,0,0,0,0,0,0,0,0,0,0,0,0,0,0,0,0,0,0,0,0,0,0,0,0,0,0,0,0,0,0,0,0,0,0,0,0,0,0,0,0,0,0,0,0,0,0,0,0,0,0,0,0,0,0,0.1331,0.1332,0,0.1369,0.1369,0.1369,0.1405,0.1406,0.1407,0.1407,0.1458,0.1458,0.1459,0,0,0,0,0,0,0,0,0,0,0,0,0,0.1277,0.1278,0.1331,0.1332,0.1332,0.1369,0.1369,0.1369,0.1405,0.1406,0.1407,0.1408,0.1457,0.1458,0.1459,0,0,0,0,0,0,0,0,0,0,0,0,0,0.1305,0.1278,0.1331,0.1356,0.1359,0.1369,0.1369,0.1369,0.1405,0.1406,0.1407,0.1408,0.1457,0.1458,0.1459,0.1447,0,0,0.1463,0.1463,0,0,0,0,0,0,0,0,0.1303,0.1306,0.1352,0.1354,0.1358,0.1385,0.1369,0.1397,0.1405,0.1386,0.1407,0.1408,0.1435,0.1438,0.144,0.145,0.1452,0.1463,0.1463,0.1464,0.1464,0,0,0,0,0,0,0,0.1301,0.1305,0.1344,0.1352,0.1356,0.1361,0.1366,0.1374,0.1403,0.1387,0.1391,0.1397,0.1436,0.1439,0.1442,0.1452,0.1463,0.1464,0.1464,0.1465,0.1545,0.1546,0,0,0,0,0,0,0.13,0.1303,0.1343,0.1346,0.1334,0.1361,0.1367,0.1374,0.1403,0.1409,0.1396,0.1399,0.1436,0.144,0.1444,0.1512,0.1464,0.1465,0.1466,0.1544,0.1545,0.1547,0,0,0,0,0,0,0.1299,0.1303,0.1342,0.1327,0.1332,0.1362,0.1369,0.1374,0.1408,0.141,0.1416,0.1429,0.1437,0.1442,0.1481,0.1511,0.1465,0.1466,0.1542,0.1544,0.1546,0.1597,0,0,0,0,0,0,0.1297,0.1302,0.1321,0.1327,0.1333,0.1371,0.1368,0.1374,0.1409,0.1414,0.1439,0.1443,0.1438,0.1479,0.1482,0.1512,0.1467,0.154,0.1543,0.1545,0.1593,0.16,0.1606,0,0,0,0,0,0.1295,0.1313,0.1322,0.1327,0.1353,0.1372,0.1376,0.1398,0.141,0.1431,0.1451,0.1444,0.1498,0.1481,0.1484,0.1515,0.1539,0.1542,0.1545,0.159,0.1599,0.1606,0,0,0,0,0,0,0.1301,0.1319,0.1328,0.1353,0.1373,0.1379,0.1405,0.1416,0.1446,0.146,0.146,0.1465,0.1513,0.1507,0.1488,0.1547,0.1519,0.1523,0.1552,0.156,0.1566,0.1581,0.1468,0,0,0,0,0,0.131,0.1332,0.1345,0.1369,0.1382,0.1399,0.1415,0.143,0.145,0.1466,0.1483,0.1503,0.1522,0.1537,0.1553,0.1581,0.1585,0.1604,0.1611,0.1616,0.1631,0.1658,0.1668,0.1558,0.1558,0.1558,0,0,0.1319,0.1333,0.1347,0.1373,0.1392,0.1412,0.1412,0.1448,0.1473,0.1465,0.1517,0.1531,0.1537,0.1574,0.1594,0.1576,0.1652,0.1621,0.1625,0.1637,0.1662,0.1673,0.1683,0.156,0.156,0.1559,0,0,0.1337,0.1363,0.1384,0.1404,0.1438,0.1447,0.1464,0.149,0.1516,0.1553,0.1562,0.1598,0.162,0.1636,0.1642,0.1695,0.1689,0.1703,0.1744,0.177,0.1779,0.1787,0.1809,0.1819,0.1701,0.1701,0.1701,0,0.135,0.1374,0.1395,0.1418,0.144,0.1465,0.1491,0.1516,0.1554,0.1578,0.158,0.1639,0.1649,0.1692,0.1716,0.1711,0.1724,0.1711,0.1778,0.1787,0.1794,0.1815,0.1825,0.1704,0.1704,0.1704,0.1703,0,0.1371,0.1403,0.1421,0.1456,0.1483,0.1514,0.1544,0.1585,0.1614,0.1632,0.1695,0.1711,0.1746,0.1755,0.1753,0.1816,0.1809,0.1786,0.1756,0.1808,0.1827,0.1836,0.1708,0.1707,0.1706,0.1706,0,0,0.1364,0.1423,0.1433,0.1457,0.1509,0.1528,0.1583,0.1628,0.1671,0.1711,0.176,0.1804,0.1825,0.1836,0.1845,0.187,0.1937,0.186,0.186,0.188,0.2001,0.1876,0.1874,0.1927,0.1929,0.1931,0.1993,0,0.1376,0.1422,0.1452,0.1503,0.1527,0.1574,0.1619,0.1668,0.1713,0.1769,0.1802,0.1854,0.185,0.1882,0.191,0.1936,0.1965,0.1923,0.195,0.1952,0.1831,0.1882,0.1937,0.2,0.2002,0.2003,0.2005,0,0.1379,0.1412,0.1462,0.1527,0.1544,0.1584,0.1665,0.171,0.1789,0.1828,0.1887,0.1914,0.1982,0.196,0.2033,0.2009,0.2021,0.2027,0.2028,0.1902,0.1844,0.1937,0.2022,0.202,0.2019,0.2018,0.2017,0,0.1348,0.1417,0.1459,0.1482,0.1557,0.1602,0.1652,0.1733,0.1779,0.1879,0.1921,0.1991,0.204,0.2069,0.2096,0.2076,0.2157,0.212,0.2018,0.2009,0.208,0.2071,0.2169,0.2169,0.2169,0.2169,0.2169,0,0.133,0.1368,0.1455,0.1476,0.1536,0.1598,0.1672,0.1736,0.1826,0.1877,0.1958,0.2003,0.2074,0.2118,0.2126,0.2104,0.2183,0.2041,0.202,0.21,0.2092,0.2087,0.2077,0.2171,0.2171,0.217,0.217,0,0.1281,0.134,0.1392,0.1486,0.1521,0.1567,0.1674,0.1719,0.1824,0.1896,0.1932,0.2037,0.2096,0.2142,0.2196,0.2131,0.2127,0.2098,0.22,0.2181,0.1956,0.1948,0.1986,0.1982,0.1978,0.1976,0.1973,0,0.1256,0.128,0.1387,0.1422,0.1472,0.155,0.1597,0.1707,0.1752,0.1894,0.1914,0.2018,0.207,0.2044,0.2108,0.2112,0.2084,0.2065,0.1996,0.1963,0.194,0.1936,0.1933,0.1968,0.1967,0.1967,0.1966,0,0.1204,0.1258,0.1301,0.1371,0.1431,0.1482,0.1562,0.1582,0.1702,0.1812,0.1844,0.187,0.1933,0.1964,0.1986,0.1983,0.2065,0.2031,0.2036,0.1971,0.1943,0.1922,0.1922,0.1954,0.1956,0.1957,0.1958,0,0.1171,0.1186,0.125,0.13,0.1367,0.1387,0.1443,0.1488,0.1541,0.169,0.17,0.1808,0.1913,0.1899,0.192,0.1909,0.1872,0.1793,0.181,0.1824,0.1741,0.1679,0.1603,0,0,0,0,0,0.1123,0.1129,0.1171,0.1209,0.1269,0.1307,0.1402,0.1458,0.1573,0.155,0.1616,0.1663,0.1692,0.1755,0.171,0.1858,0.1886,0.1798,0.1806,0.1892,0.1905,0.1821,0,0,0,0,0,0,0.1089,0.1125,0.1136,0.1119,0.1128,0.1175,0.1231,0.1315,0.1308,0.1435,0.1462,0.1554,0.1615,0.1695,0.1674,0.1693,0.1661,0.187,0.1865,0.1885,0.1896,0.1907,0.1825,0,0,0,0,0]},{"header":{"parameterUnit":"m.s-1","parameterCategory":2,"la1":30.2991,"la2":30.254,"lo1":-89.0895,"lo2":-89.0444,"dy":0.0017,"dx":0.0017,"nx":28,"ny":28,"refTime":"2023-10-06T21:00:00:Z","depth":"4","parameterNumber":3,"parameterNumberName":"V-component_of_CURRENTS"},"data":[0,0,0,0,0,0,0,0,0,0,0,0,0,0,0,0,0,0,0,0,0,0,0,0,0,0,0,0,0,0,0,0,0,0,0,0,0,0,0,0,0,0,0,0,0,0,0,0,0,0,0,0,0,0,0,0,0,0,0.0212,0.0212,0,0.0189,0.0189,0.0189,0.0176,0.0175,0.0175,0.0175,0.0145,0.0144,0.0143,0,0,0,0,0,0,0,0,0,0,0,0,0,0.022,0.022,0.0212,0.0212,0.0211,0.0189,0.0189,0.0189,0.0176,0.0175,0.0175,0.0175,0.0145,0.0144,0.0143,0,0,0,0,0,0,0,0,0,0,0,0,0,0.0208,0.022,0.0212,0.0202,0.0201,0.0189,0.0189,0.0188,0.0176,0.0175,0.0175,0.0175,0.0146,0.0144,0.0143,0.0137,0,0,0.014,0.0139,0,0,0,0,0,0,0,0,0.0209,0.0208,0.0204,0.0203,0.0202,0.0185,0.018,0.0171,0.0176,0.0185,0.0175,0.0175,0.0158,0.0156,0.0151,0.0135,0.0134,0.014,0.0139,0.0138,0.0138,0,0,0,0,0,0,0,0.021,0.0209,0.0203,0.0204,0.0202,0.0191,0.019,0.0179,0.0172,0.0184,0.0183,0.0181,0.0157,0.0152,0.015,0.0133,0.014,0.0139,0.0138,0.0137,0.0106,0.0105,0,0,0,0,0,0,0.0215,0.021,0.0203,0.0202,0.0206,0.0191,0.0189,0.019,0.0172,0.0169,0.0181,0.0181,0.0155,0.0152,0.0149,0.0146,0.0138,0.0137,0.0137,0.0106,0.0106,0.0105,0,0,0,0,0,0,0.0215,0.0214,0.0204,0.0205,0.0203,0.0191,0.0192,0.019,0.0187,0.017,0.0167,0.0181,0.0154,0.0151,0.0143,0.0145,0.0137,0.0136,0.0106,0.0106,0.0105,0.0136,0,0,0,0,0,0,0.0215,0.0215,0.0218,0.0206,0.0203,0.0201,0.0192,0.019,0.0186,0.0185,0.0168,0.0166,0.0154,0.0145,0.0141,0.0143,0.0135,0.0106,0.0106,0.0106,0.0135,0.0137,0.0138,0,0,0,0,0,0.0216,0.0222,0.0219,0.0218,0.0208,0.0202,0.02,0.019,0.0186,0.0187,0.0175,0.0166,0.014,0.0144,0.014,0.0141,0.0106,0.0106,0.0106,0.0135,0.0137,0.0138,0,0,0,0,0,0,0.0227,0.0221,0.0217,0.0221,0.0214,0.02,0.0201,0.0193,0.0184,0.0184,0.0167,0.0163,0.0155,0.0143,0.0147,0.013,0.0121,0.012,0.0144,0.0146,0.0147,0.0162,0.0134,0,0,0,0,0,0.0232,0.0236,0.0225,0.0229,0.0227,0.0214,0.021,0.0204,0.0194,0.019,0.0177,0.0162,0.0151,0.0145,0.0132,0.0125,0.011,0.0122,0.0123,0.0125,0.0133,0.0111,0.0112,0.0104,0.0104,0.0104,0,0,0.0237,0.0235,0.0237,0.0232,0.0226,0.0227,0.0212,0.021,0.0213,0.0188,0.0187,0.0168,0.015,0.0142,0.0137,0.0133,0.0117,0.0124,0.0126,0.0134,0.0111,0.0112,0.0112,0.0104,0.0104,0.0104,0,0,0.0251,0.0249,0.0256,0.0252,0.0246,0.0239,0.024,0.0227,0.0224,0.0217,0.02,0.0186,0.0165,0.0155,0.0146,0.0148,0.0126,0.0139,0.016,0.0139,0.0139,0.014,0.0115,0.0113,0.014,0.014,0.014,0,0.0257,0.0267,0.0257,0.0262,0.0265,0.0247,0.0256,0.0249,0.0234,0.0235,0.0221,0.0191,0.0173,0.0168,0.0166,0.0153,0.0135,0.0157,0.0142,0.0142,0.0142,0.0117,0.0114,0.0142,0.0142,0.0141,0.0141,0,0.0274,0.0283,0.0288,0.0291,0.0291,0.0297,0.0287,0.0286,0.0276,0.0265,0.0254,0.0225,0.021,0.0196,0.0182,0.0173,0.0158,0.0147,0.014,0.0145,0.0117,0.0114,0.0144,0.0143,0.0143,0.0142,0,0,0.029,0.0299,0.0302,0.0315,0.031,0.0316,0.0321,0.0323,0.0334,0.0304,0.0311,0.0277,0.0258,0.0247,0.0222,0.02,0.0178,0.0175,0.0174,0.0157,0.0125,0.0113,0.0108,0.0162,0.0162,0.0162,0.0104,0,0.0308,0.0332,0.0329,0.0356,0.0369,0.0361,0.0371,0.0369,0.036,0.0359,0.0324,0.0317,0.0279,0.0272,0.0244,0.0199,0.0172,0.0194,0.0119,0.0116,0.011,0.0105,0.0161,0.0102,0.0101,0.0101,0.01,0,0.0329,0.0344,0.0375,0.0401,0.0407,0.042,0.0443,0.0449,0.0439,0.0431,0.0409,0.0377,0.0345,0.031,0.0233,0.0248,0.0191,0.0149,0.0145,0.0124,0.0098,0.0096,0.0094,0.0095,0.0095,0.0096,0.0096,0,0.0355,0.038,0.0411,0.0418,0.0439,0.0459,0.0471,0.0473,0.0492,0.0478,0.0482,0.043,0.0413,0.0335,0.0243,0.0237,0.0153,0.0134,0.0067,0.0065,0.0081,0.0081,0.0077,0.0077,0.0077,0.0077,0.0078,0,0.0379,0.0406,0.0431,0.045,0.0497,0.0497,0.0544,0.0546,0.0557,0.0582,0.0524,0.0525,0.0418,0.0354,0.0261,0.0157,0.0165,0.0073,0.0051,0.0093,0.0095,0.0078,0.0079,0.0075,0.0076,0.0076,0.0076,0,0.0401,0.0416,0.0459,0.0495,0.0514,0.0548,0.0599,0.0629,0.063,0.066,0.0657,0.0599,0.0513,0.0397,0.0274,0.019,0.0086,0.0045,0.0101,0.0083,0.0006,0.0009,-0.0035,-0.0036,-0.0037,-0.0037,-0.0038,0,0.0414,0.0439,0.0497,0.0531,0.0553,0.0606,0.0645,0.0667,0.07,0.0705,0.0721,0.0649,0.0592,0.0413,0.0283,0.0103,0.0072,0.0012,0.0003,0.0011,-0.0005,-0.0001,0.0003,-0.0039,-0.0039,-0.0039,-0.0039,0,0.044,0.0465,0.0501,0.0571,0.0624,0.0683,0.074,0.0768,0.0792,0.0793,0.0774,0.0672,0.0574,0.0421,0.028,0.015,0.0048,0.0004,0.0004,-0.0005,0.0006,-0.0009,-0.0004,-0.0042,-0.0042,-0.0041,-0.0041,0,0.0465,0.0495,0.0549,0.0609,0.0678,0.0742,0.0767,0.0803,0.0834,0.0831,0.0825,0.0708,0.0644,0.0445,0.0318,0.0186,0.0144,0.0091,0.0086,0.0087,0.0134,0.0166,0.0152,0,0,0,0,0,0.0483,0.0521,0.058,0.065,0.0717,0.0762,0.0825,0.0842,0.0864,0.0857,0.0843,0.0748,0.0553,0.0472,0.0338,0.0292,0.0115,0.0128,0.0051,-0.0056,-0.0053,-0.0021,0,0,0,0,0,0,0.0499,0.0556,0.0583,0.0675,0.0727,0.0808,0.0851,0.0863,0.0859,0.0855,0.0759,0.0706,0.0523,0.0635,0.0335,0.0295,0.0223,0.004,0.0036,-0.0058,-0.0055,-0.0053,-0.0019,0,0,0,0,0]}]]